This is the latest recevied weather packets stored in our database for station/object K6TTR. If no packets are shown the sender has not sent any weather packets the latest 10 day(s).
| Time | Temp. | Humidity | Pressure | Rain* | Wind** | Luminosity | Snow |
|---|---|---|---|---|---|---|---|
| 1777648417 | 6.67° C | 90% | 1020.1 hPa | 0 mm | - | 67 W/m² | - |
| 1777648117 | 6.11° C | 91% | 1020.1 hPa | 0 mm | - | 60 W/m² | - |
| 1777647820 | 6.11° C | 91% | 1020.2 hPa | 0 mm | - | 62 W/m² | - |
| 1777647523 | 5.56° C | 91% | 1020.1 hPa | 0 mm | - | 54 W/m² | - |
| 1777646931 | 4.44° C | 91% | 1020.2 hPa | 0 mm | - | 49 W/m² | - |
| 1777646316 | 3.89° C | 91% | 1020.2 hPa | 0 mm | - | 67 W/m² | - |
| 1777646020 | 3.33° C | 91% | 1020.1 hPa | 0 mm | - | 40 W/m² | - |
| 1777645725 | 3.33° C | 91% | 1020.2 hPa | 0 mm | - | 37 W/m² | - |
| 1777645414 | 3.33° C | 91% | 1020.1 hPa | 0 mm | - | 35 W/m² | - |
| 1777645120 | 3.33° C | 91% | 1020.1 hPa | 0 mm | - | 35 W/m² | - |
| 1777644824 | 2.78° C | 91% | 1020 hPa | 0 mm | - | 37 W/m² | - |
| 1777644529 | 2.78° C | 91% | 1020.1 hPa | 0 mm | - | 49 W/m² | - |
| 1777644213 | 2.22° C | 91% | 1020 hPa | 0 mm | - | 47 W/m² | - |
| 1777643917 | 2.22° C | 91% | 1019.9 hPa | 0 mm | - | 35 W/m² | - |
| 1777643621 | 2.22° C | 91% | 1019.8 hPa | 0 mm | - | 28 W/m² | - |
| 1777642715 | 2.22° C | 91% | 1019.7 hPa | 0 mm | - | 19 W/m² | - |
| 1777642418 | 2.22° C | 91% | 1019.5 hPa | 0 mm | - | 16 W/m² | - |
| 1777642119 | 2.22° C | 91% | 1019.5 hPa | 0 mm | - | 14 W/m² | - |
| 1777641824 | 2.22° C | 91% | 1019.4 hPa | 0 mm | - | 12 W/m² | - |
| 1777641530 | 2.22° C | 91% | 1019.4 hPa | 0 mm | - | 11 W/m² | - |
| 1777641214 | 2.22° C | 91% | 1019.4 hPa | 0 mm | - | 7 W/m² | - |
| 1777640918 | 2.22° C | 91% | 1019.4 hPa | 0 mm | - | 5 W/m² | - |
| 1777640012 | 2.22° C | 90% | 1019.4 hPa | 0 mm | - | 0 W/m² | - |
| 1777639125 | 2.22° C | 90% | 1019 hPa | 0 mm | - | 0 W/m² | - |
| 1777638829 | 2.22° C | 90% | 1019 hPa | 0 mm | - | 0 W/m² | - |
* Rain latest hour (hover to see other rain measurements)
** Current wind speed in m/s (hover to see current wind gust speed)